| time (UTC) | temp F | wind direction | speed knots | gust knots | rain 1hr in | rain 24hr in | rain mn in | humidity % | barometer mb |
| 20260504130510 | 58 | 205 | 1.7 | 5.2 | 0.00 | 0.00 | 0.00 | 49 | 1014.6 |
| 20260504110508 | 48 | 221 | 0.0 | 0.0 | 0.00 | 0.00 | 0.00 | 68 | 1015.3 |
| 20260504100507 | 48 | 249 | 0.0 | 0.0 | 0.00 | 0.00 | 0.00 | 67 | 1015.0 |
| 20260504082008 | 47 | 293 | 0.0 | 0.0 | 0.00 | 0.00 | 0.00 | 69 | 1015.5 |
| 20260504081512 | 47 | 319 | 0.0 | 0.0 | 0.00 | 0.00 | 0.00 | 66 | 1015.4 |
| 20260504081005 | 47 | 360 | 0.0 | 0.0 | 0.00 | 0.00 | 0.00 | 68 | 1015.3 |
| 20260504080506 | 47 | 323 | 0.0 | 0.0 | 0.00 | 0.00 | 0.00 | 68 | 1015.4 |
| 20260504050507 | 41 | 360 | 0.0 | 0.9 | 0.00 | 0.00 | 0.00 | 77 | 1016.0 |
| 20260504050019 | 41 | 360 | 0.0 | 0.9 | 0.00 | 0.00 | 0.00 | 77 | 1016.0 |
| 20260504045507 | 42 | 360 | 0.0 | 0.0 | 0.00 | 0.00 | 0.00 | 75 | 1016.0 |
| 20260504045004 | 42 | 264 | 0.0 | 0.0 | 0.00 | 0.00 | 0.00 | 75 | 1016.0 |
| 20260504044522 | 42 | 264 | 0.0 | 0.0 | 0.00 | 0.00 | 0.00 | 74 | 1016.1 |
| 20260504044004 | 43 | 264 | 0.0 | 1.7 | 0.00 | 0.00 | 0.00 | 72 | 1016.1 |
| 20260504043508 | 43 | 220 | 0.0 | 1.7 | 0.00 | 0.00 | 0.00 | 72 | 1016.0 |
| 20260504043021 | 43 | 219 | 0.0 | 0.0 | 0.00 | 0.00 | 0.00 | 70 | 1015.9 |
| 20260504042509 | 44 | 219 | 0.0 | 0.0 | 0.00 | 0.00 | 0.00 | 69 | 1015.9 |
| 20260504042005 | 44 | 219 | 0.0 | 0.0 | 0.00 | 0.00 | 0.00 | 66 | 1015.9 |
| 20260504041515 | 45 | 219 | 0.0 | 0.0 | 0.00 | 0.00 | 0.00 | 63 | 1015.9 |
| 20260504041006 | 45 | 219 | 0.0 | 0.9 | 0.00 | 0.00 | 0.00 | 60 | 1015.9 |
| 20260504040507 | 46 | 219 | 0.0 | 0.9 | 0.00 | 0.00 | 0.00 | 59 | 1015.9 |
| 20260504040024 | 46 | 219 | 0.0 | 0.0 | 0.00 | 0.00 | 0.00 | 58 | 1015.8 |
| 20260504035510 | 47 | 219 | 0.0 | 0.0 | 0.00 | 0.00 | 0.00 | 56 | 1015.8 |
| 20260504035007 | 47 | 219 | 0.0 | 0.0 | 0.00 | 0.00 | 0.00 | 57 | 1015.9 |
| 20260504034529 | 47 | 220 | 0.0 | 0.0 | 0.00 | 0.00 | 0.00 | 57 | 1015.9 |
| 20260504034007 | 48 | 220 | 0.0 | 0.0 | 0.00 | 0.00 | 0.00 | 57 | 1015.9 |
| 20260504033507 | 48 | 220 | 0.0 | 0.9 | 0.00 | 0.00 | 0.00 | 55 | 1015.9 |
| 20260504033034 | 49 | 220 | 0.0 | 1.7 | 0.00 | 0.00 | 0.00 | 55 | 1015.9 |
| 20260504032509 | 49 | 220 | 0.0 | 1.7 | 0.00 | 0.00 | 0.00 | 56 | 1015.9 |
| 20260504032009 | 49 | 220 | 0.0 | 1.7 | 0.00 | 0.00 | 0.00 | 55 | 1015.8 |
| 20260504031527 | 49 | 233 | 0.9 | 4.3 | 0.00 | 0.00 | 0.00 | 55 | 1015.9 |
| 20260504031006 | 49 | 219 | 1.7 | 4.3 | 0.00 | 0.00 | 0.00 | 55 | 1015.8 |
| 20260504030507 | 47 | 224 | 1.7 | 3.5 | 0.00 | 0.00 | 0.00 | 60 | 1015.7 |
| 20260504030017 | 44 | 223 | 0.9 | 1.7 | 0.00 | 0.00 | 0.00 | 70 | 1015.7 |
| 20260504025507 | 44 | 263 | 0.0 | 0.0 | 0.00 | 0.00 | 0.00 | 74 | 1015.7 |
| 20260504025009 | 44 | 280 | 0.0 | 0.0 | 0.00 | 0.00 | 0.00 | 73 | 1015.7 |
| 20260504024539 | 44 | 280 | 0.0 | 0.0 | 0.00 | 0.00 | 0.00 | 73 | 1015.6 |
| 20260504024008 | 44 | 280 | 0.0 | 0.0 | 0.00 | 0.00 | 0.00 | 72 | 1015.4 |
| 20260504023508 | 44 | 280 | 0.0 | 0.0 | 0.00 | 0.00 | 0.00 | 72 | 1015.4 |
| 20260504023021 | 44 | 280 | 0.0 | 0.0 | 0.00 | 0.00 | 0.00 | 72 | 1015.4 |
| 20260504022508 | 44 | 280 | 0.0 | 0.0 | 0.00 | 0.00 | 0.00 | 71 | 1015.4 |
| 20260504022014 | 45 | 280 | 0.0 | 0.0 | 0.00 | 0.00 | 0.00 | 71 | 1015.4 |
| 20260504021521 | 45 | 280 | 0.0 | 0.0 | 0.00 | 0.00 | 0.00 | 70 | 1015.3 |
| 20260504021008 | 45 | 280 | 0.0 | 0.0 | 0.00 | 0.00 | 0.00 | 69 | 1015.4 |
| 20260504020509 | 46 | 281 | 0.0 | 0.0 | 0.00 | 0.00 | 0.00 | 69 | 1015.4 |
| 20260504020022 | 46 | 280 | 0.0 | 0.0 | 0.00 | 0.00 | 0.00 | 67 | 1015.3 |
| 20260504015507 | 46 | 280 | 0.0 | 0.0 | 0.00 | 0.00 | 0.00 | 67 | 1015.2 |
| 20260504015007 | 46 | 280 | 0.0 | 0.0 | 0.00 | 0.00 | 0.00 | 66 | 1015.1 |
| 20260504014517 | 47 | 281 | 0.0 | 0.0 | 0.00 | 0.00 | 0.00 | 65 | 1015.1 |
| 20260504014010 | 47 | 280 | 0.0 | 0.0 | 0.00 | 0.00 | 0.00 | 63 | 1015.1 |
| 20260504013506 | 47 | 280 | 0.0 | 0.0 | 0.00 | 0.00 | 0.00 | 63 | 1015.0 |
| 20260504013023 | 48 | 280 | 0.0 | 0.0 | 0.00 | 0.00 | 0.00 | 61 | 1015.0 |
| 20260504012507 | 48 | 280 | 0.0 | 0.0 | 0.00 | 0.00 | 0.00 | 60 | 1015.0 |
| 20260504012008 | 48 | 280 | 0.0 | 0.0 | 0.00 | 0.00 | 0.00 | 59 | 1014.9 |
| 20260504011523 | 49 | 280 | 0.0 | 0.0 | 0.00 | 0.00 | 0.00 | 58 | 1014.9 |
| 20260504011006 | 50 | 281 | 0.0 | 0.0 | 0.00 | 0.00 | 0.00 | 55 | 1014.9 |
| 20260504010510 | 50 | 281 | 0.0 | 0.0 | 0.00 | 0.00 | 0.00 | 55 | 1014.9 |
| 20260504010011 | 50 | 280 | 0.0 | 0.0 | 0.00 | 0.00 | 0.00 | 55 | 1015.0 |
| 20260504005504 | 51 | 280 | 0.0 | 0.0 | 0.00 | 0.00 | 0.00 | 54 | 1014.9 |
| 20260504005006 | 51 | 281 | 0.0 | 0.0 | 0.00 | 0.00 | 0.00 | 51 | 1014.9 |
| 20260504004532 | 52 | 281 | 0.0 | 0.0 | 0.00 | 0.00 | 0.00 | 49 | 1014.9 |
| 20260504004008 | 52 | 280 | 0.0 | 0.0 | 0.00 | 0.00 | 0.00 | 45 | 1014.8 |
| 20260504003507 | 53 | 280 | 0.0 | 0.0 | 0.00 | 0.00 | 0.00 | 48 | 1014.6 |
| 20260504003023 | 54 | 280 | 0.0 | 0.0 | 0.00 | 0.00 | 0.00 | 45 | 1014.6 |
| 20260504002509 | 56 | 280 | 0.0 | 0.0 | 0.00 | 0.00 | 0.00 | 41 | 1014.5 |
| 20260504002009 | 56 | 281 | 0.0 | 0.9 | 0.00 | 0.00 | 0.00 | 39 | 1014.5 |
| 20260504001504 | 57 | 280 | 0.0 | 1.7 | 0.00 | 0.00 | 0.00 | 37 | 1014.5 |
| 20260504001007 | 57 | 258 | 0.0 | 1.7 | 0.00 | 0.00 | 0.00 | 37 | 1014.6 |
| 20260504000502 | 57 | 302 | 0.0 | 1.7 | 0.00 | 0.00 | 0.00 | 38 | 1014.6 |
| 20260504000007 | 58 | 302 | 0.0 | 1.7 | 0.00 | 0.00 | 0.00 | 36 | 1014.5 |
| 20260503235504 | 59 | 302 | 0.0 | 3.5 | 0.00 | 0.00 | 0.00 | 33 | 1014.4 |
| 20260503235003 | 60 | 284 | 0.0 | 3.5 | 0.00 | 0.00 | 0.00 | 32 | 1014.4 |
| 20260503234512 | 60 | 286 | 0.0 | 5.2 | 0.00 | 0.00 | 0.00 | 31 | 1014.4 |
| 20260503234007 | 61 | 282 | 1.7 | 5.2 | 0.00 | 0.00 | 0.00 | 30 | 1014.3 |
| 20260503233505 | 61 | 294 | 1.7 | 5.2 | 0.00 | 0.00 | 0.00 | 30 | 1014.3 |
| 20260503233018 | 61 | 300 | 1.7 | 4.3 | 0.00 | 0.00 | 0.00 | 29 | 1014.3 |
| 20260503232511 | 62 | 315 | 2.6 | 7.8 | 0.00 | 0.00 | 0.00 | 29 | 1014.3 |
| 20260503232008 | 62 | 303 | 1.7 | 7.8 | 0.00 | 0.00 | 0.00 | 28 | 1014.2 |
| 20260503231523 | 62 | 290 | 1.7 | 8.7 | 0.00 | 0.00 | 0.00 | 29 | 1014.2 |
| 20260503231012 | 62 | 262 | 3.5 | 8.7 | 0.00 | 0.00 | 0.00 | 28 | 1014.1 |
| 20260503230511 | 62 | 307 | 3.5 | 8.7 | 0.00 | 0.00 | 0.00 | 29 | 1014.1 |
| 20260503230006 | 63 | 288 | 2.6 | 7.8 | 0.00 | 0.00 | 0.00 | 28 | 1014.1 |
| 20260503225503 | 63 | 305 | 4.3 | 7.8 | 0.00 | 0.00 | 0.00 | 28 | 1014.0 |
| 20260503225003 | 63 | 277 | 1.7 | 7.8 | 0.00 | 0.00 | 0.00 | 28 | 1014.1 |
| 20260503224509 | 63 | 254 | 3.5 | 7.8 | 0.00 | 0.00 | 0.00 | 27 | 1014.1 |
| 20260503224008 | 63 | 314 | 3.5 | 7.8 | 0.00 | 0.00 | 0.00 | 27 | 1014.1 |
| 20260503223504 | 63 | 269 | 1.7 | 9.6 | 0.00 | 0.00 | 0.00 | 27 | 1014.2 |
| 20260503223015 | 63 | 220 | 3.5 | 9.6 | 0.00 | 0.00 | 0.00 | 28 | 1014.1 |
| 20260503222509 | 63 | 267 | 2.6 | 10.4 | 0.00 | 0.00 | 0.00 | 27 | 1014.1 |
| 20260503222006 | 63 | 256 | 3.5 | 10.4 | 0.00 | 0.00 | 0.00 | 28 | 1014.2 |
| 20260503221521 | 63 | 230 | 5.2 | 10.4 | 0.00 | 0.00 | 0.00 | 27 | 1014.2 |
| 20260503221012 | 63 | 257 | 2.6 | 10.4 | 0.00 | 0.00 | 0.00 | 27 | 1014.2 |
| 20260503220508 | 63 | 263 | 6.1 | 10.4 | 0.00 | 0.00 | 0.00 | 26 | 1014.2 |
| 20260503220023 | 63 | 215 | 5.2 | 10.4 | 0.00 | 0.00 | 0.00 | 27 | 1014.3 |
| 20260503215512 | 63 | 329 | 4.3 | 12.2 | 0.00 | 0.00 | 0.00 | 26 | 1014.2 |
| 20260503215005 | 64 | 284 | 4.3 | 10.4 | 0.00 | 0.00 | 0.00 | 27 | 1014.2 |
| 20260503214506 | 63 | 347 | 4.3 | 9.6 | 0.00 | 0.00 | 0.00 | 27 | 1014.3 |
| 20260503214004 | 63 | 251 | 4.3 | 7.8 | 0.00 | 0.00 | 0.00 | 27 | 1014.3 |
| 20260503213503 | 64 | 285 | 1.7 | 7.8 | 0.00 | 0.00 | 0.00 | 27 | 1014.4 |
| 20260503213017 | 63 | 289 | 2.6 | 9.6 | 0.00 | 0.00 | 0.00 | 26 | 1014.4 |
| 20260503212506 | 63 | 284 | 4.3 | 9.6 | 0.00 | 0.00 | 0.00 | 27 | 1014.4 |
| 20260503212009 | 63 | 273 | 2.6 | 10.4 | 0.00 | 0.00 | 0.00 | 27 | 1014.4 |
| 20260503211522 | 63 | 279 | 4.3 | 10.4 | 0.00 | 0.00 | 0.00 | 27 | 1014.4 |
| 20260503211008 | 64 | 243 | 3.5 | 9.6 | 0.00 | 0.00 | 0.00 | 26 | 1014.4 |
| 20260503210506 | 63 | 266 | 3.5 | 7.0 | 0.00 | 0.00 | 0.00 | 26 | 1014.4 |
| 20260503210023 | 63 | 296 | 3.5 | 13.0 | 0.00 | 0.00 | 0.00 | 28 | 1014.4 |
| 20260503205509 | 63 | 312 | 2.6 | 13.0 | 0.00 | 0.00 | 0.00 | 28 | 1014.3 |
| 20260503205008 | 63 | 49 | 1.7 | 11.3 | 0.00 | 0.00 | 0.00 | 29 | 1014.3 |
| 20260503204528 | 62 | 248 | 2.6 | 12.2 | 0.00 | 0.00 | 0.00 | 26 | 1014.5 |
| 20260503204012 | 63 | 280 | 3.5 | 12.2 | 0.00 | 0.00 | 0.00 | 27 | 1014.6 |
| 20260503203506 | 63 | 304 | 5.2 | 12.2 | 0.00 | 0.00 | 0.00 | 27 | 1014.6 |
| 20260503203012 | 62 | 289 | 4.3 | 12.2 | 0.00 | 0.00 | 0.00 | 26 | 1014.6 |
| 20260503202507 | 62 | 278 | 5.2 | 13.0 | 0.00 | 0.00 | 0.00 | 27 | 1014.6 |
| 20260503202009 | 62 | 245 | 6.1 | 13.0 | 0.00 | 0.00 | 0.00 | 28 | 1014.6 |
| 20260503201516 | 61 | 253 | 4.3 | 8.7 | 0.00 | 0.00 | 0.00 | 28 | 1014.6 |
| 20260503201005 | 62 | 275 | 3.5 | 12.2 | 0.00 | 0.00 | 0.00 | 27 | 1014.8 |
| 20260503200508 | 61 | 267 | 2.6 | 12.2 | 0.00 | 0.00 | 0.00 | 27 | 1014.8 |
| 20260503200020 | 62 | 285 | 4.3 | 10.4 | 0.00 | 0.00 | 0.00 | 30 | 1015.0 |
| 20260503195509 | 62 | 301 | 6.1 | 12.2 | 0.00 | 0.00 | 0.00 | 28 | 1015.0 |
| 20260503195010 | 62 | 326 | 5.2 | 12.2 | 0.00 | 0.00 | 0.00 | 29 | 1015.0 |
| 20260503194524 | 60 | 300 | 7.0 | 12.2 | 0.00 | 0.00 | 0.00 | 30 | 1015.1 |
| 20260503194007 | 61 | 286 | 5.2 | 12.2 | 0.00 | 0.00 | 0.00 | 28 | 1015.3 |
| 20260503193511 | 62 | 290 | 5.2 | 13.0 | 0.00 | 0.00 | 0.00 | 29 | 1015.3 |
| 20260503193038 | 63 | 307 | 3.5 | 13.0 | 0.00 | 0.00 | 0.00 | 28 | 1015.3 |
| 20260503192511 | 62 | 337 | 6.1 | 13.0 | 0.00 | 0.00 | 0.00 | 28 | 1015.4 |
| 20260503192007 | 61 | 289 | 5.2 | 12.2 | 0.00 | 0.00 | 0.00 | 28 | 1015.4 |
| 20260503191515 | 60 | 330 | 3.5 | 11.3 | 0.00 | 0.00 | 0.00 | 30 | 1015.6 |
| 20260503191008 | 61 | 352 | 2.6 | 17.4 | 0.00 | 0.00 | 0.00 | 29 | 1015.7 |
| 20260503190508 | 61 | 268 | 5.2 | 17.4 | 0.00 | 0.00 | 0.00 | 32 | 1015.8 |
| 20260503190025 | 60 | 256 | 7.0 | 13.9 | 0.00 | 0.00 | 0.00 | 30 | 1015.8 |
| 20260503185508 | 60 | 294 | 7.0 | 13.9 | 0.00 | 0.00 | 0.00 | 31 | 1015.8 |
| 20260503185010 | 60 | 286 | 7.0 | 13.0 | 0.00 | 0.00 | 0.00 | 32 | 1015.9 |
| 20260503184524 | 59 | 276 | 3.5 | 7.8 | 0.00 | 0.00 | 0.00 | 31 | 1016.0 |
| 20260503184008 | 60 | 300 | 2.6 | 13.0 | 0.00 | 0.00 | 0.00 | 31 | 1016.0 |
| 20260503183508 | 60 | 289 | 3.5 | 15.6 | 0.00 | 0.00 | 0.00 | 31 | 1016.2 |
| 20260503183027 | 61 | 284 | 7.8 | 15.6 | 0.00 | 0.00 | 0.00 | 31 | 1016.2 |
| 20260503182514 | 60 | 257 | 7.0 | 14.8 | 0.00 | 0.00 | 0.00 | 31 | 1016.2 |
| 20260503182017 | 61 | 289 | 5.2 | 14.8 | 0.00 | 0.00 | 0.00 | 32 | 1016.2 |
| 20260503181526 | 59 | 284 | 6.1 | 11.3 | 0.00 | 0.00 | 0.00 | 32 | 1016.3 |
| 20260503181004 | 60 | 267 | 3.5 | 11.3 | 0.00 | 0.00 | 0.00 | 32 | 1016.3 |
| 20260503180508 | 59 | 272 | 4.3 | 15.6 | 0.00 | 0.00 | 0.00 | 33 | 1016.4 |
| 20260503180018 | 58 | 248 | 7.0 | 15.6 | 0.00 | 0.00 | 0.00 | 33 | 1016.5 |
| 20260503175507 | 59 | 64 | 5.2 | 12.2 | 0.00 | 0.00 | 0.00 | 33 | 1016.5 |
| 20260503175008 | 58 | 274 | 3.5 | 13.0 | 0.00 | 0.00 | 0.00 | 34 | 1016.5 |
| 20260503174527 | 58 | 292 | 6.1 | 13.0 | 0.00 | 0.00 | 0.00 | 34 | 1016.6 |
| 20260503174009 | 58 | 281 | 3.5 | 14.8 | 0.00 | 0.00 | 0.00 | 36 | 1016.7 |
| 20260503173027 | 57 | 315 | 4.3 | 12.2 | 0.00 | 0.00 | 0.00 | 35 | 1016.7 |
| 20260503172513 | 58 | 273 | 4.3 | 13.0 | 0.00 | 0.00 | 0.00 | 38 | 1016.7 |
| 20260503172011 | 57 | 299 | 4.3 | 17.4 | 0.00 | 0.00 | 0.00 | 35 | 1016.8 |
| 20260503171526 | 58 | 319 | 4.3 | 17.4 | 0.00 | 0.00 | 0.00 | 36 | 1016.7 |
| 20260503170510 | 55 | 210 | 4.3 | 11.3 | 0.00 | 0.00 | 0.00 | 36 | 1016.9 |